This is the latest recevied weather packets stored in our database for station/object KC8YYF. If no packets are shown the sender has not sent any weather packets the latest 10 day(s).
| Time | Temp. | Humidity | Pressure | Rain* | Wind** | Luminosity | Snow |
|---|---|---|---|---|---|---|---|
| 1777913308 | 20° C | 54% | 1009.7 hPa | 0 mm | - | 664 W/m² | - |
| 1777913005 | 20° C | 55% | 1009.7 hPa | 0 mm | - | 624 W/m² | - |
| 1777912701 | 20° C | 56% | 1009.6 hPa | 0 mm | - | 389 W/m² | - |
| 1777912397 | 20° C | 54% | 1009.8 hPa | 0 mm | - | 630 W/m² | - |
| 1777912094 | 19.44° C | 57% | 1009.8 hPa | 0 mm | - | 646 W/m² | - |
| 1777911789 | 20° C | 56% | 1010.1 hPa | 0 mm | - | 609 W/m² | - |
| 1777911486 | 18.89° C | 55% | 1009.8 hPa | 0 mm | - | 625 W/m² | - |
| 1777911183 | 19.44° C | 53% | 1010.1 hPa | 0 mm | - | 620 W/m² | - |
| 1777910881 | 18.89° C | 56% | 1010.1 hPa | 0 mm | - | 546 W/m² | - |
| 1777910577 | 19.44° C | 55% | 1010.1 hPa | 0 mm | - | 617 W/m² | - |
| 1777910274 | 18.33° C | 55% | 1009.9 hPa | 0 mm | - | 601 W/m² | - |
| 1777909971 | 18.89° C | 54% | 1010.1 hPa | 0 mm | - | 542 W/m² | - |
| 1777909668 | 18.89° C | 58% | 1010.1 hPa | 0 mm | - | 542 W/m² | - |
| 1777909365 | 17.78° C | 55% | 1010.4 hPa | 0 mm | - | 536 W/m² | - |
| 1777909063 | 19.44° C | 53% | 1010.1 hPa | 0 mm | - | 531 W/m² | - |
| 1777908760 | 17.78° C | 56% | 1010.2 hPa | 0 mm | - | 508 W/m² | - |
| 1777908458 | 17.78° C | 56% | 1010.3 hPa | 0 mm | - | 557 W/m² | - |
| 1777908154 | 18.33° C | 55% | 1010.1 hPa | 0 mm | - | 591 W/m² | - |
| 1777907850 | 18.33° C | 55% | 1010.2 hPa | 0 mm | - | 446 W/m² | - |
| 1777907546 | 18.33° C | 55% | 1010.3 hPa | 0 mm | - | 467 W/m² | - |
| 1777907242 | 17.78° C | 55% | 1010.4 hPa | 0 mm | - | 565 W/m² | - |
| 1777906939 | 17.78° C | 54% | 1010.4 hPa | 0 mm | - | 487 W/m² | - |
| 1777906637 | 17.78° C | 53% | 1010.6 hPa | 0 mm | - | 532 W/m² | - |
| 1777906332 | 18.33° C | 54% | 1010.6 hPa | 0 mm | - | 478 W/m² | - |
| 1777906029 | 18.33° C | 55% | 1010.8 hPa | 0 mm | - | 526 W/m² | - |
* Rain latest hour (hover to see other rain measurements)
** Current wind speed in m/s (hover to see current wind gust speed)